Overview Statistics Trail Chart Weather Telemetry Raw packets
 

This is the latest recevied weather packets stored in our database for station/object XE2B-20. If no packets are shown the sender has not sent any weather packets the latest 10 day(s).

<< 14 15 16 17 18 19 20 >>
Time Temp. Humidity Pressure Rain* Wind** Luminosity Snow
1788090833 13.89° C 50% 809.5 hPa - - - -
1788089343 13.89° C 50% 809.3 hPa - - - -
1788088020 14.44° C 49% 809 hPa - - - -
1788087836 14.44° C 49% 809 hPa - - - -
1788086340 15° C 48% 809.1 hPa - - - -
1788084850 15.56° C 47% 809.1 hPa - - - -
1788083344 15.56° C 47% 809.2 hPa - - - -
1788082038 15.56° C 46% 809 hPa - - - -
1788081846 15.56° C 46% 809 hPa - - - -
1788080354 16.11° C 45% 809.2 hPa - - - -
1788079645 16.11° C 45% 809.4 hPa - - - -
1788078850 16.11° C 45% 809.4 hPa - - - -
1788077360 16.11° C 45% 809.7 hPa - - - -
1788075852 16.11° C 45% 809.9 hPa - - - -
1788074353 16.11° C 45% 809.9 hPa - - - -
1788072856 16.11° C 44% 810.1 hPa - - - -
1788071357 16.11° C 44% 810.3 hPa - - - -
1788070073 16.67° C 43% 810.4 hPa - - - -
1788069859 16.67° C 43% 810.4 hPa - - - -
1788068363 17.22° C 42% 810.6 hPa - - - -
1788066865 17.22° C 42% 810.2 hPa - - - -
1788065368 17.22° C 41% 810.3 hPa - - - -
1788063883 18.33° C 40% 809.7 hPa - - - -
1788062374 18.89° C 40% 809.6 hPa - - - -
1788060876 18.89° C 39% 809.3 hPa - - - -

* Rain since midnight (hover to see other rain measurements)
** Current wind speed in m/s (hover to see current wind gust speed)